CHX1055 EDDN-EDXH

Flight info

Callsign CHX1055
Flight time N/A
Altitude 37000
Route SULUS1G SULUS L604 MASEK Z99 ELNAT P605 NORTA DCT GASTU
Aircraft LJ35/M-SFGJRW/S

Departure

Time N/A
Airport Nuremberg Airport (EDDN)

Arrival

Time 2026-04-12 09:30
Airport Helgoland-Düne Airport (EDXH)
Time Latitude Longitude Altitude Speed Heading
2026-04-12 08:39 50.09674 10.69458 14369 ft 370 kts 310°
2026-04-12 08:39 50.11405 10.66449 15026 ft 374 kts 308°
2026-04-12 08:40 50.13177 10.63445 15704 ft 377 kts 311°
2026-04-12 08:40 50.15044 10.60549 16403 ft 380 kts 312°
2026-04-12 08:40 50.16923 10.57649 17144 ft 380 kts 310°
2026-04-12 08:40 50.18746 10.54662 17880 ft 380 kts 308°
2026-04-12 08:41 50.20520 10.51597 18580 ft 380 kts 307°
2026-04-12 08:41 50.22300 10.48536 19224 ft 381 kts 308°
2026-04-12 08:41 50.24138 10.45545 19877 ft 383 kts 309°
2026-04-12 08:41 50.26008 10.42669 20543 ft 383 kts 310°
2026-04-12 08:42 50.27900 10.39750 21245 ft 381 kts 309°
2026-04-12 08:42 50.29766 10.36738 21959 ft 379 kts 307°
2026-04-12 08:42 50.31541 10.33775 22663 ft 378 kts 307°
2026-04-12 08:42 50.33345 10.30795 23374 ft 377 kts 307°
2026-04-12 08:43 50.35175 10.27852 24012 ft 376 kts 307°
2026-04-12 08:43 50.36863 10.24842 24606 ft 372 kts 303°
2026-04-12 08:43 50.38538 10.21756 25212 ft 373 kts 304°
2026-04-12 08:43 50.40292 10.18755 25839 ft 374 kts 305°
2026-04-12 08:44 50.42127 10.15828 26444 ft 376 kts 307°
2026-04-12 08:44 50.43984 10.12933 27081 ft 375 kts 305°
2026-04-12 08:44 50.45752 10.09928 27721 ft 374 kts 304°
2026-04-12 08:44 50.47504 10.06889 28369 ft 375 kts 303°
2026-04-12 08:45 50.49259 10.03858 29011 ft 376 kts 303°
2026-04-12 08:45 50.51021 10.00866 29658 ft 377 kts 304°
2026-04-12 08:45 50.52820 9.97831 30267 ft 377 kts 303°
2026-04-12 08:45 50.54582 9.94782 30818 ft 375 kts 301°
2026-04-12 08:46 50.56237 9.91634 31390 ft 373 kts 300°
2026-04-12 08:46 50.57863 9.88462 31966 ft 372 kts 300°
2026-04-12 08:46 50.61183 9.82203 33180 ft 372 kts 301°
2026-04-12 08:47 50.62856 9.79108 33828 ft 370 kts 300°
2026-04-12 08:47 50.64482 9.76023 34397 ft 368 kts 300°
2026-04-12 08:47 50.66094 9.72880 34918 ft 367 kts 300°
2026-04-12 08:47 50.67706 9.69740 35422 ft 371 kts 300°
2026-04-12 08:48 50.69369 9.66663 35900 ft 380 kts 306°
2026-04-12 08:48 50.71524 9.63997 36359 ft 398 kts 319°
2026-04-12 08:48 50.74050 9.62078 36831 ft 415 kts 332°
2026-04-12 08:48 50.76878 9.61065 37296 ft 432 kts 346°
2026-04-12 08:49 50.79936 9.61119 37779 ft 446 kts
2026-04-12 08:49 50.83022 9.61800 38332 ft 449 kts
2026-04-12 08:49 50.86112 9.62508 38856 ft 447 kts
2026-04-12 08:49 50.89185 9.63034 39273 ft 446 kts 360°
2026-04-12 08:50 50.92297 9.63506 39509 ft 452 kts
2026-04-12 08:50 50.95469 9.64088 39493 ft 465 kts
2026-04-12 08:50 50.98656 9.64816 39957 ft 463 kts
2026-04-12 08:50 51.01895 9.65544 39754 ft 476 kts
2026-04-12 08:51 51.05221 9.66168 39461 ft 486 kts
2026-04-12 08:51 51.08517 9.66729 39092 ft 469 kts
2026-04-12 08:51 51.11713 9.67328 38694 ft 456 kts
2026-04-12 08:51 51.14822 9.67991 38187 ft 446 kts
2026-04-12 08:52 51.16842 9.68434 37962 ft 436 kts
2026-04-12 08:52 51.19769 9.69034 38028 ft 415 kts
2026-04-12 08:52 51.22587 9.69459 38023 ft 396 kts 357°
2026-04-12 08:52 51.25278 9.69805 38024 ft 381 kts 358°
2026-04-12 08:53 51.27876 9.70238 37973 ft 370 kts 359°
2026-04-12 08:53 51.30403 9.70732 37865 ft 360 kts 359°
2026-04-12 08:53 51.32866 9.71178 37716 ft 351 kts 357°
2026-04-12 08:53 51.35278 9.71537 37541 ft 350 kts 356°
2026-04-12 08:54 51.37723 9.71875 37386 ft 355 kts 356°
2026-04-12 08:54 51.40196 9.72270 37268 ft 359 kts 358°
2026-04-12 08:54 51.42693 9.72718 37203 ft 362 kts 358°
2026-04-12 08:55 51.47688 9.73549 37078 ft 364 kts 357°
2026-04-12 08:55 51.52747 9.74464 37002 ft 368 kts 359°
2026-04-12 08:56 51.57825 9.75498 36930 ft 368 kts 358°
2026-04-12 08:56 51.62919 9.76405 36845 ft 368 kts 358°
2026-04-12 08:57 51.68011 9.77391 36809 ft 369 kts 358°
2026-04-12 08:57 51.73110 9.78372 36745 ft 369 kts 358°
2026-04-12 08:58 51.78186 9.79311 36696 ft 369 kts 358°
2026-04-12 08:58 51.83308 9.80297 36639 ft 367 kts 355°
2026-04-12 08:58 51.85812 9.80142 36569 ft 354 kts 341°
2026-04-12 08:59 51.88168 9.79237 36547 ft 342 kts 330°
2026-04-12 08:59 51.90287 9.77646 36540 ft 331 kts 319°
2026-04-12 08:59 51.92236 9.75705 36497 ft 328 kts 316°
2026-04-12 09:00 51.96109 9.71884 36461 ft 332 kts 318°
2026-04-12 09:00 51.98160 9.69916 36485 ft 352 kts 318°
2026-04-12 09:00 52.00270 9.67839 36601 ft 368 kts 318°
2026-04-12 09:00 52.02493 9.65631 36779 ft 381 kts 319°
2026-04-12 09:01 52.04798 9.63364 37022 ft 393 kts 320°
2026-04-12 09:01 52.07171 9.61051 37296 ft 402 kts 320°
2026-04-12 09:01 52.09595 9.58682 37580 ft 410 kts 320°
2026-04-12 09:01 52.12045 9.56259 37882 ft 417 kts 321°
2026-04-12 09:02 52.14546 9.53771 38227 ft 423 kts 321°
2026-04-12 09:02 52.17076 9.51267 38555 ft 428 kts 321°
2026-04-12 09:02 52.19640 9.48738 38856 ft 433 kts 322°
2026-04-12 09:02 52.22234 9.46175 39113 ft 437 kts 322°
2026-04-12 09:03 52.24830 9.43592 39378 ft 440 kts 322°
2026-04-12 09:03 52.27456 9.40968 39643 ft 442 kts 322°
2026-04-12 09:03 52.30090 9.38342 39912 ft 444 kts 322°
2026-04-12 09:03 52.32741 9.35711 40182 ft 447 kts 323°
2026-04-12 09:04 52.35400 9.33060 40446 ft 448 kts 323°
2026-04-12 09:04 52.38061 9.30388 40699 ft 450 kts 323°
2026-04-12 09:04 52.40729 9.27702 40975 ft 451 kts 323°
2026-04-12 09:04 52.43419 9.25010 41229 ft 453 kts 323°
2026-04-12 09:05 52.46112 9.22318 41480 ft 454 kts 323°
2026-04-12 09:05 52.48814 9.19599 41727 ft 455 kts 323°
2026-04-12 09:05 52.51506 9.16870 41974 ft 456 kts 323°
2026-04-12 09:05 52.54211 9.14131 42214 ft 457 kts 323°
2026-04-12 09:06 52.56921 9.11406 42447 ft 458 kts 324°
2026-04-12 09:06 52.59642 9.08664 42678 ft 458 kts 324°
2026-04-12 09:06 52.62355 9.05907 42905 ft 459 kts 324°
2026-04-12 09:06 52.65033 9.03172 43150 ft 460 kts 324°
2026-04-12 09:07 52.67758 9.00398 43380 ft 461 kts 324°
2026-04-12 09:07 52.70493 8.97627 43587 ft 462 kts 324°
2026-04-12 09:07 52.73239 8.94838 43791 ft 463 kts 324°
2026-04-12 09:07 52.75975 8.92035 43995 ft 463 kts 324°
2026-04-12 09:08 52.78704 8.89226 44197 ft 463 kts 324°
2026-04-12 09:08 52.81448 8.86414 44390 ft 464 kts 324°
2026-04-12 09:08 52.84201 8.83609 44582 ft 464 kts 324°
2026-04-12 09:08 52.86948 8.80797 44758 ft 464 kts 324°
2026-04-12 09:09 52.89685 8.77966 44914 ft 464 kts 324°
2026-04-12 09:09 52.92423 8.75125 45069 ft 465 kts 324°
2026-04-12 09:09 52.95172 8.72288 45226 ft 465 kts 324°
2026-04-12 09:09 52.97926 8.69460 45367 ft 465 kts 324°
2026-04-12 09:10 53.00678 8.66624 45503 ft 466 kts 324°
2026-04-12 09:10 53.03428 8.63762 45652 ft 466 kts 324°
2026-04-12 09:10 53.06161 8.60905 45304 ft 459 kts 324°
2026-04-12 09:10 53.08832 8.58128 44815 ft 449 kts 324°
2026-04-12 09:11 53.11465 8.55406 44241 ft 442 kts 324°
2026-04-12 09:11 53.14050 8.52722 43678 ft 435 kts 323°
2026-04-12 09:11 53.16589 8.50061 43136 ft 428 kts 323°
2026-04-12 09:11 53.19093 8.47425 42606 ft 422 kts 322°
2026-04-12 09:12 53.21556 8.44841 42098 ft 417 kts 322°
2026-04-12 09:12 53.24005 8.42286 41602 ft 412 kts 322°
2026-04-12 09:12 53.26415 8.39765 41118 ft 407 kts 322°
2026-04-12 09:12 53.28788 8.37264 40661 ft 402 kts 321°
2026-04-12 09:13 53.31144 8.34771 40214 ft 397 kts 321°
2026-04-12 09:13 53.33468 8.32316 39778 ft 393 kts 321°
2026-04-12 09:13 53.35744 8.29920 39371 ft 390 kts 320°
2026-04-12 09:13 53.38059 8.27481 38959 ft 386 kts 320°
2026-04-12 09:14 53.40289 8.25118 38558 ft 382 kts 319°
2026-04-12 09:14 53.42527 8.22743 38055 ft 379 kts 319°
2026-04-12 09:14 53.44748 8.20388 37577 ft 376 kts 318°
2026-04-12 09:14 53.46945 8.18058 37143 ft 372 kts 317°
2026-04-12 09:15 53.49116 8.15751 36711 ft 368 kts 316°
2026-04-12 09:15 53.51261 8.13464 36290 ft 363 kts 316°
2026-04-12 09:15 53.53383 8.11199 35881 ft 359 kts 315°
2026-04-12 09:15 53.55476 8.08965 35490 ft 354 kts 314°
2026-04-12 09:16 53.57549 8.06751 35111 ft 350 kts 314°
2026-04-12 09:16 53.59588 8.04569 34742 ft 345 kts 313°
2026-04-12 09:16 53.61603 8.02422 34381 ft 343 kts 313°
2026-04-12 09:16 53.63844 8.00752 33974 ft 365 kts 329°
2026-04-12 09:17 53.66408 7.99993 33532 ft 380 kts 341°
2026-04-12 09:17 53.69045 7.99682 33132 ft 378 kts 342°
2026-04-12 09:17 53.71644 7.99317 32737 ft 371 kts 339°
2026-04-12 09:17 53.74191 7.98820 32378 ft 366 kts 338°
2026-04-12 09:18 53.76714 7.98338 31994 ft 365 kts 339°
2026-04-12 09:18 53.79241 7.97953 31621 ft 364 kts 340°
2026-04-12 09:18 53.81763 7.97617 31249 ft 362 kts 340°
2026-04-12 09:18 53.84256 7.97245 30884 ft 358 kts 339°
2026-04-12 09:19 53.86697 7.96822 30525 ft 355 kts 338°
2026-04-12 09:19 53.89194 7.96374 29755 ft 362 kts 338°
2026-04-12 09:19 53.91774 7.95898 28152 ft 392 kts 341°
2026-04-12 09:20 53.97495 7.95009 25164 ft 426 kts 346°
2026-04-12 09:20 54.00464 7.94595 23829 ft 428 kts 347°
2026-04-12 09:20 54.06310 7.93642 20896 ft 414 kts 347°
2026-04-12 09:21 54.09143 7.93151 19573 ft 397 kts 348°
2026-04-12 09:21 54.11693 7.92780 18273 ft 344 kts 349°
2026-04-12 09:21 54.13966 7.92462 16906 ft 318 kts 348°
2026-04-12 09:21 54.16209 7.92060 15689 ft 328 kts 347°
2026-04-12 09:22 54.18480 7.91623 14294 ft 312 kts 348°
2026-04-12 09:22 54.20498 7.91273 8600 ft 300 kts 350°
2026-04-12 09:22 54.22724 7.90664 4010 ft 333 kts 347°
2026-04-12 09:22 54.24785 7.90615 2478 ft 277 kts 26°
2026-04-12 09:23 54.26198 7.92552 2070 ft 252 kts 50°
2026-04-12 09:23 54.27047 7.95040 1618 ft 240 kts 71°
2026-04-12 09:23 54.27241 7.97778 1300 ft 221 kts 106°
2026-04-12 09:23 54.26508 7.99853 1175 ft 193 kts 138°
2026-04-12 09:24 54.25479 8.01404 1230 ft 211 kts 144°
2026-04-12 09:24 54.24269 8.02882 1577 ft 221 kts 152°
2026-04-12 09:24 54.22913 8.04336 1709 ft 241 kts 140°
2026-04-12 09:24 54.21799 8.06599 1826 ft 253 kts 133°
2026-04-12 09:25 54.20616 8.08863 1828 ft 258 kts 136°
2026-04-12 09:25 54.19213 8.10759 1829 ft 258 kts 150°
2026-04-12 09:25 54.17637 8.12216 1827 ft 254 kts 159°
2026-04-12 09:25 54.16028 8.13285 1820 ft 243 kts 167°
2026-04-12 09:26 54.14403 8.13281 1810 ft 231 kts 198°
2026-04-12 09:26 54.12985 8.12106 1809 ft 224 kts 212°
2026-04-12 09:26 54.11672 8.10712 1811 ft 220 kts 214°
2026-04-12 09:26 54.10660 8.08820 1810 ft 217 kts 242°
2026-04-12 09:27 54.10147 8.06472 1811 ft 213 kts 252°
2026-04-12 09:27 54.09811 8.04036 1814 ft 209 kts 258°
2026-04-12 09:27 54.09787 8.01592 1809 ft 209 kts 281°
2026-04-12 09:27 54.10313 7.99279 1802 ft 210 kts 291°
2026-04-12 09:28 54.11116 7.97249 1990 ft 203 kts 322°
2026-04-12 09:28 54.12420 7.96368 2221 ft 199 kts 340°
2026-04-12 09:28 54.13697 7.95878 1588 ft 172 kts 347°
2026-04-12 09:28 54.14820 7.95552 830 ft 159 kts 343°
2026-04-12 09:29 54.15770 7.94894 620 ft 138 kts 314°
2026-04-12 09:29 54.16533 7.93993 487 ft 132 kts 316°
2026-04-12 09:29 54.17275 7.93073 292 ft 132 kts 317°
2026-04-12 09:29 54.17987 7.92124 116 ft 127 kts 317°
2026-04-12 09:30 54.18571 7.91359 7 ft 61 kts 324°
2026-04-12 09:30 54.18633 7.91285 12 ft 1 kts 326°
2026-04-12 09:30 54.18643 7.91278 12 ft 2 kts
2026-04-12 09:30 54.18643 7.91296 11 ft 5 kts 147°
2026-04-12 09:31 54.18592 7.91353 8 ft 7 kts 120°
2026-04-12 09:31 54.18594 7.91402 6 ft 5 kts 61°
2026-04-12 09:31 54.18594 7.91404 6 ft 0 kts 60°
2026-04-12 09:31 54.18598 7.91413 6 ft 4 kts 46°
2026-04-12 09:32 54.18639 7.91495 6 ft 13 kts 55°
2026-04-12 09:32 54.18690 7.91584 6 ft 3 kts 14°
2026-04-12 09:32 54.18719 7.91600 6 ft 4 kts 28°
2026-04-12 09:32 54.18735 7.91602 6 ft 5 kts 320°
2026-04-12 09:33 54.18740 7.91587 7 ft 1 kts 274°
2026-04-12 09:33 54.18736 7.91574 7 ft 0 kts 236°
2026-04-12 09:35 54.18736 7.91568 7 ft 0 kts 233°
2026-04-12 09:36 54.18647 7.91495 6 ft 0 kts 325°
2026-04-12 09:37 54.18757 7.91592 7 ft 0 kts 143°
2026-04-12 09:37 54.18715 7.91578 7 ft 0 kts 308°
2026-04-12 09:39 54.18722 7.91584 7 ft 0 kts 203°
2026-04-12 09:40 54.18715 7.91578 7 ft 0 kts 308°